Find Starlink 35966

NORAD ID: 66821 Int'l Des: 2025-280 Owner: SPXS Country: US Constellation: starlink operational
LEOCIRCULAR

当前视图

正在加载3D地球...

关于 Starlink 35966

正在加载描述...

即将过境

Passes for default location (London). Set your location on the main map for personalized predictions.

高度历史

Loading altitude history...

两行轨道根数

1 66821U 25280A 26146.28117315 .00001190 00000-0 10754-3 0 9998
2 66821 70.0010 139.0143 0003129 269.0404 91.0397 14.98331676 27695
Epoch: May 26, 2026 • Age: 9 hours

当前状态

高度 592.2 km
速度 7.56 km/s
星下点 -58.65°S, 23.73°W
发射日期 Dec 2, 2025
运行时间 0.4 years
类型 internet

技术详情

分类 Payload
质量 575.00 kg
干质量 530.00 kg
总质量 575.00 kg
长度 0.30 m
直径 4.10 m
跨度 29.00 m
形状 Box + pan
制造商 SPXS
平台类型 Starlink V2MO
阶段状态 In Orbit
所有者/国家 SPXS/US

Most Searched